#timestamp,LO_Frequency,Hit,StdDev 
1556640015.2,286047002.7,N
1556640035.1,286047001.3,N
1556640036.0,286047001.3,N
1556640055.8,286047002.4,N
1556640075.6,286047001.8,N
1556640095.5,286047002.4,N
1556640115.3,286047002.5,N
1556640135.1,286046999.8,N
1556640155.9,286046998.2,N
1556640175.7,286047001.0,N
1556640195.6,286047002.0,N
1556640215.4,286047002.1,N
1556640235.2,286047001.5,N
1556640255.1,286047001.9,N
1556640256.0,286047001.9,N
1556640275.8,286046999.8,N
1556640295.6,286047000.3,N
1556640315.5,286047002.5,N
1556640335.3,286047002.0,N
1556640355.2,286047000.0,N
1556640375.9,286047001.0,N
1556640395.7,286046999.9,N
1556640415.6,286047002.7,N
1556640435.4,286046998.5,N
1556640455.2,286046998.9,N
1556640475.1,286046996.5,N
1556640476.0,286046996.5,N
1556640495.8,286046997.5,N
1556640515.7,286046999.5,N
1556640535.5,286046999.6,N
1556640555.3,286046999.3,N
1556640575.2,286046997.0,N
1556640595.0,286046999.1,N
1556640595.9,286046999.1,N
1556640615.8,286046996.6,N
1556640635.6,286046999.4,N
1556640655.4,286046998.9,N
1556640675.3,286046999.2,N
1556640695.1,286046999.1,N
1556640715.8,286047001.2,N
1556640735.7,286047001.2,N
1556640755.5,286046999.4,N
1556640775.4,286046997.4,N
1556640795.2,286046995.0,N
1556640815.0,286046995.4,N
1556640815.9,286046995.4,N
1556640835.8,286046996.1,N
1556640855.6,286046997.7,N
1556640875.4,286046999.2,N
1556640895.3,286046997.4,N
1556640915.1,286046994.9,N
1556640935.9,286046998.0,N
1556640955.7,286046995.3,N
1556640975.5,286046993.4,Y
1556640995.4,286046997.6,P
1556641015.2,286046997.4,P
1556641035.0,286046997.5,P
1556641036.0,286046997.5,Y
1556641055.8,286047000.8,P
1556641075.6,286046998.4,N
1556641095.5,286046999.4,N
1556641115.3,286046999.0,N
1556641135.1,286046999.0,N
1556641155.9,286046998.5,N
1556641175.7,286047001.0,N
1556641195.5,286046998.7,N
1556641215.4,286046999.6,N
1556641235.2,286046996.8,Y
1556641255.1,286046997.0,P
1556641256.0,286046997.0,N
1556641275.8,286047000.8,N
1556641295.6,286047000.9,N
1556641315.5,286047000.3,N
1556641335.3,286047000.6,N
1556641355.2,286046998.5,N
1556641375.9,286047001.1,N
1556641395.7,286047000.7,N
1556641415.6,286047000.7,N
1556641435.4,286047002.7,N
1556641455.2,286047002.4,N
1556641475.1,286046999.9,N
1556641476.0,286046999.9,N
1556641495.8,286047002.7,N
1556641515.7,286047002.5,N
1556641535.5,286047002.7,N
1556641555.3,286047002.4,N
1556641575.2,286047004.1,N
1556641595.0,286047004.3,N
1556641595.9,286047004.3,N
1556641615.7,286046999.9,N
1556641635.6,286046999.9,N
1556641655.4,286047000.1,N
1556641675.3,286047002.4,N
1556641695.1,286047002.2,N
1556641696.0,286047002.2,N
1556641715.8,286047003.2,N
1556641735.7,286047004.1,N
1556641755.5,286047003.7,N
1556641775.4,286047004.2,N
1556641795.2,286047005.7,Y
1556641815.0,286047003.7,P
1556641815.9,286047003.7,P
1556641835.8,286047003.8,P
1556641855.6,286047004.3,Y
1556641875.4,286046999.0,P
1556641895.3,286046998.3,N
1556641915.1,286046999.4,N
1556641935.9,286046997.5,N
1556641955.7,286046995.1,N
1556641975.5,286046997.8,N
1556641995.4,286046997.3,N
1556642015.2,286046995.3,N
1556642035.0,286046995.8,N
1556642035.9,286046995.8,N
1556642055.8,286046995.6,N
1556642075.6,286046997.3,N
1556642095.5,286046997.1,N
1556642115.3,286046997.8,N
1556642135.1,286046997.6,N
1556642155.9,286046995.6,N
1556642175.7,286046996.2,N
1556642195.5,286046997.3,N
1556642215.4,286046999.4,N
1556642235.2,286046998.2,N
1556642255.1,286046999.2,N
1556642256.0,286046999.2,N
1556642275.8,286046997.5,N
1556642295.6,286046997.9,N
1556642315.5,286046993.8,Y
1556642335.3,286046999.1,P
1556642355.1,286046998.3,N
1556642375.9,286046999.0,N
1556642395.7,286047000.7,N
1556642415.6,286047000.5,N
1556642435.4,286047000.1,N
1556642455.2,286046998.1,N
1556642475.1,286046998.8,N
1556642476.0,286046998.8,N
1556642495.8,286046998.8,N
1556642515.7,286047001.2,N
1556642535.5,286046998.5,N
1556642555.3,286046999.9,N
1556642575.2,286047000.2,N
1556642595.0,286047001.2,N
1556642595.9,286047001.2,N
1556642615.7,286047000.5,N
1556642635.6,286046998.5,N
1556642655.4,286046998.3,N
1556642675.3,286046998.6,N
1556642695.1,286046999.4,N
1556642696.0,286046999.4,N
1556642715.8,286046996.5,Y
1556642735.7,286047000.3,P
1556642755.5,286047000.7,N
1556642775.3,286046998.4,P
1556642795.2,286047000.2,N
1556642815.0,286047001.4,N
1556642815.9,286047001.4,N
1556642835.8,286047001.5,N
1556642855.6,286047004.0,Y
1556642875.4,286047002.0,P
1556642895.3,286047000.7,N
1556642915.1,286047001.2,N
1556642935.9,286047000.9,N
1556642955.7,286047002.0,Y
1556642975.5,286046999.8,P
1556642995.4,286046998.1,P
1556643015.2,286046998.4,N
1556643035.0,286047000.7,N
1556643035.9,286047000.7,N
1556643055.8,286047001.2,N
1556643075.6,286047000.0,N
1556643095.5,286047002.2,N
1556643115.3,286047002.5,N
1556643135.1,286047001.6,N
1556643155.9,286047000.4,N
1556643175.7,286047002.8,N
1556643195.5,286047002.8,N
1556643215.4,286047001.8,N
1556643235.2,286047002.2,N
1556643255.1,286047004.4,Y
1556643256.0,286047004.4,P
1556643275.8,286047004.4,N
1556643295.6,286047003.9,N
1556643315.5,286047001.4,N
1556643335.3,286047000.2,N
1556643355.1,286047001.6,N
1556643375.9,286047000.0,N
1556643395.7,286047000.5,N
1556643415.6,286047000.8,N
1556643435.4,286047000.3,N
1556643455.2,286047000.6,N
1556643475.1,286047000.3,N
1556643476.0,286047000.3,N
1556643495.8,286046998.5,N
1556643515.7,286047000.7,N
1556643535.5,286047000.4,N
1556643555.3,286047000.2,N
1556643575.2,286047001.7,N
1556643595.0,286047003.1,N
1556643595.9,286047003.1,N
